STAR ONE C4

Last updated on Sun Jun 21 2026 00:03:06 GMT+0000 (Coordinated Universal Time)

1 40733U 15034B 26171.37811707 -.00000270 00000+0 00000+0 0 9999 2 40733 0.0219 6.8660 0002060 49.2655 278.5883 1.00272341 40045
UTC large
Height (km)
Speed (km/s)
/
Latitude / Longitude
Inclination (degrees)
Orbital Period (minutes)
Azimuth
Elevation
Range (km)
Doppler Factor

Next 0 passes for location: London (51.5072 / 0.1276)

No passes found over London.
STAR ONE C4